.
WxDataArchive / Data Records for 2006-09-04
2006-09-03 September 2006 2006-09-05

Data Records for Monday, 04 September 2006

Time	Temp	Chill	HIndex	Humid	Dewpt	 Wind 	HiWind	WindDir	Rain 	Barom 
-----	----	-----	------	-----	-----	------	------	-------	-----	----- 
00:00	57.2	57.2	57.2	92	54.9	0	0	---	0.00	30.097 
00:05	57.0	57.0	57.0	92	54.7	0	0	---	0.00	30.097 
00:10	56.9	56.9	56.9	92	54.6	0	0	---	0.00	30.097 
00:15	56.7	56.7	56.7	92	54.4	0	0	---	0.00	30.099 
00:20	56.6	56.6	56.6	92	54.3	0	0	---	0.00	30.099 
00:25	56.5	56.5	56.5	92	54.2	0	0	---	0.00	30.099 
00:30	56.3	56.3	56.3	92	54.0	0	0	---	0.00	30.098 
00:35	56.3	56.3	56.3	93	54.3	0	0	---	0.00	30.098 
00:40	56.2	56.2	56.2	93	54.2	0	0	---	0.00	30.098 
00:45	56.2	56.2	56.2	93	54.2	0	0	---	0.00	30.099 
00:50	56.0	56.0	56.0	93	54.0	0	0	---	0.00	30.099 
00:55	55.9	55.9	55.9	93	53.9	0	0	---	0.00	30.099 
01:00	55.7	55.7	55.7	93	53.7	0	0	---	0.00	30.098 
01:05	55.6	55.6	55.6	93	53.6	0	0	---	0.00	30.098 
01:10	55.4	55.4	55.4	93	53.4	0	0	---	0.00	30.098 
01:15	55.3	55.3	55.3	93	53.3	0	0	---	0.00	30.097 
01:20	55.3	55.3	55.3	93	53.3	0	0	---	0.00	30.097 
01:25	55.3	55.3	55.3	94	53.6	0	0	---	0.00	30.097 
01:30	55.1	55.1	55.1	94	53.4	0	0	---	0.00	30.098 
01:35	55.1	55.1	55.1	94	53.4	0	0	---	0.00	30.098 
01:40	55.1	55.1	55.1	94	53.4	0	0	---	0.00	30.098 
01:45	55.1	55.1	55.1	94	53.4	0	0	---	0.00	30.101 
01:50	55.0	55.0	55.0	94	53.3	0	0	---	0.00	30.101 
01:55	54.8	54.8	54.8	94	53.1	0	0	---	0.00	30.101 
02:00	54.8	54.8	54.8	94	53.1	0	0	---	0.00	30.100 
02:05	54.7	54.7	54.7	95	53.3	0	0	---	0.00	30.100 
02:10	54.5	54.5	54.5	95	53.1	0	0	---	0.00	30.100 
02:15	54.4	54.4	54.4	95	53.0	0	0	---	0.00	30.098 
02:20	54.4	54.4	54.4	95	53.0	0	0	---	0.00	30.098 
02:25	54.2	54.2	54.2	95	52.8	0	0	---	0.00	30.098 
02:30	54.2	54.2	54.2	95	52.8	0	0	---	0.00	30.100 
02:35	54.1	54.1	54.1	95	52.7	0	0	---	0.00	30.100 
02:40	53.9	53.9	53.9	95	52.5	0	0	---	0.00	30.100 
02:45	53.9	53.9	53.9	95	52.5	0	0	---	0.00	30.099 
02:50	53.9	53.9	53.9	95	52.5	0	0	---	0.00	30.099 
02:55	53.8	53.8	53.8	95	52.4	0	0	---	0.00	30.099 
03:00	53.8	53.8	53.8	95	52.4	0	0	---	0.00	30.099 
03:05	53.6	53.6	53.6	95	52.2	0	0	---	0.00	30.099 
03:10	53.6	53.6	53.6	95	52.2	0	0	---	0.00	30.099 
03:15	53.5	53.5	53.5	95	52.1	0	0	---	0.00	30.099 
03:20	53.5	53.5	53.5	95	52.1	0	0	---	0.00	30.099 
03:25	53.5	53.5	53.5	95	52.1	0	0	---	0.00	30.099 
03:30	53.5	53.5	53.5	95	52.1	0	0	---	0.00	30.097 
03:35	53.3	53.3	53.3	95	51.9	0	0	---	0.00	30.097 
03:40	53.2	53.2	53.2	95	51.8	0	0	---	0.00	30.097 
03:45	53.2	53.2	53.2	95	51.8	0	0	---	0.00	30.096 
03:50	53.2	53.2	53.2	95	51.8	0	0	---	0.00	30.096 
03:55	53.1	53.1	53.1	95	51.7	0	0	---	0.00	30.096 
04:00	52.9	52.9	52.9	95	51.5	0	0	---	0.00	30.095 
04:05	52.9	52.9	52.9	95	51.5	0	0	---	0.00	30.095 
04:10	52.8	52.8	52.8	96	51.7	0	0	---	0.00	30.095 
04:15	52.8	52.8	52.8	96	51.7	0	0	---	0.00	30.095 
04:20	52.6	52.6	52.6	96	51.5	0	0	---	0.00	30.095 
04:25	52.6	52.6	52.6	96	51.5	0	0	---	0.00	30.095 
04:30	52.6	52.6	52.6	96	51.5	0	0	---	0.00	30.091 
04:35	52.5	52.5	52.5	96	51.4	0	0	---	0.00	30.091 
04:40	52.3	52.3	52.3	96	51.2	0	0	---	0.00	30.091 
04:45	52.3	52.3	52.3	96	51.2	0	0	---	0.00	30.090 
04:50	52.3	52.3	52.3	96	51.2	0	0	---	0.00	30.090 
04:55	52.3	52.3	52.3	96	51.2	0	0	---	0.00	30.090 
05:00	52.3	52.3	52.3	96	51.2	0	0	---	0.00	30.088 
05:05	52.2	52.2	52.2	96	51.1	0	0	---	0.00	30.088 
05:10	52.2	52.2	52.2	96	51.1	0	0	---	0.00	30.088 
05:15	52.0	52.0	52.0	96	50.9	0	0	---	0.00	30.087 
05:20	51.9	51.9	51.9	96	50.8	0	0	---	0.00	30.087 
05:25	51.9	51.9	51.9	96	50.8	0	0	---	0.00	30.087 
05:30	51.9	51.9	51.9	96	50.8	0	0	---	0.00	30.089 
05:35	51.9	51.9	51.9	96	50.8	0	0	---	0.00	30.089 
05:40	51.7	51.7	51.7	96	50.6	0	0	---	0.00	30.089 
05:45	51.6	51.6	51.6	96	50.5	0	0	---	0.00	30.087 
05:50	51.6	51.6	51.6	96	50.5	0	0	---	0.00	30.087 
05:55	51.4	51.4	51.4	96	50.3	0	0	---	0.00	30.087 
06:00	51.4	51.4	51.4	96	50.3	0	0	---	0.00	30.090 
06:05	51.4	51.4	51.4	96	50.3	0	0	---	0.00	30.090 
06:10	51.4	51.4	51.4	96	50.3	0	0	---	0.00	30.090 
06:15	51.3	51.3	51.3	96	50.2	0	0	---	0.00	30.090 
06:20	51.3	51.3	51.3	96	50.2	0	0	---	0.00	30.090 
06:25	51.1	51.1	51.1	96	50.0	0	0	---	0.00	30.090 
06:30	51.1	51.1	51.1	96	50.0	0	0	---	0.00	30.090 
06:35	51.0	51.0	51.0	96	49.9	0	0	---	0.00	30.090 
06:40	51.0	51.0	51.0	96	49.9	0	0	---	0.00	30.090 
06:45	51.0	51.0	51.0	96	49.9	0	0	---	0.00	30.097 
06:50	51.0	51.0	51.0	96	49.9	0	0	---	0.00	30.097 
06:55	51.0	51.0	51.0	96	49.9	0	0	---	0.00	30.097 
07:00	50.8	50.8	50.8	96	49.7	0	0	---	0.00	30.094 
07:05	51.0	51.0	51.0	96	49.9	0	0	---	0.00	30.094 
07:10	51.0	51.0	51.0	96	49.9	0	0	---	0.00	30.094 
07:15	51.0	51.0	51.0	96	49.9	0	0	---	0.00	30.100 
07:20	51.1	51.1	51.1	96	50.0	0	0	---	0.00	30.100 
07:25	51.1	51.1	51.1	97	50.3	0	0	---	0.00	30.100 
07:30	51.3	51.3	51.3	96	50.2	0	0	---	0.00	30.105 
07:35	51.4	51.4	51.4	97	50.6	0	0	---	0.00	30.105 
07:40	51.6	51.6	51.6	97	50.8	0	0	---	0.00	30.105 
07:45	51.7	51.7	51.7	97	50.9	0	0	---	0.00	30.105 
07:50	52.0	52.0	52.0	97	51.2	0	0	---	0.00	30.105 
07:55	52.3	52.3	52.3	97	51.5	0	0	---	0.00	30.105 
08:00	52.5	52.5	52.5	97	51.7	0	0	---	0.00	30.107 
08:05	52.8	52.8	52.8	97	52.0	0	0	---	0.00	30.107 
08:10	52.9	52.9	52.9	97	52.1	0	0	---	0.00	30.107 
08:15	53.2	53.2	53.2	97	52.4	0	0	---	0.00	30.122 
08:20	53.5	53.5	53.5	97	52.7	0	0	---	0.00	30.122 
08:25	53.8	53.8	53.8	97	53.0	0	0	---	0.00	30.122 
08:30	54.2	54.2	54.2	97	53.4	0	0	---	0.00	30.122 
08:35	54.5	54.5	54.5	97	53.7	0	0	---	0.00	30.122 
08:40	54.8	54.8	54.8	97	54.0	0	0	---	0.00	30.122 
08:45	55.3	55.3	55.3	97	54.5	0	0	---	0.00	30.125 
08:50	55.7	55.7	55.7	98	55.1	0	0	---	0.00	30.125 
08:55	56.0	56.0	56.0	98	55.4	0	0	---	0.00	30.125 
09:00	56.3	56.3	56.3	98	55.7	0	0	---	0.00	30.124 
09:05	56.6	56.6	56.6	98	56.0	0	0	---	0.00	30.124 
09:10	57.0	57.0	57.0	98	56.4	0	0	---	0.00	30.124 
09:15	57.3	57.3	57.3	98	56.7	0	0	---	0.00	30.128 
09:20	57.6	57.6	57.6	98	57.0	0	0	---	0.00	30.128 
09:25	58.1	58.1	58.1	98	57.5	0	0	---	0.00	30.128 
09:30	58.4	58.4	58.4	98	57.8	0	0	---	0.00	30.128 
09:35	58.6	58.6	58.6	98	58.0	0	0	---	0.00	30.128 
09:40	58.9	58.9	58.9	98	58.3	0	0	---	0.00	30.128 
09:45	59.2	59.2	59.2	98	58.6	0	0	---	0.00	30.123 
09:50	59.6	59.6	59.6	97	58.7	0	0	---	0.00	30.123 
09:55	59.9	59.9	59.9	97	59.0	0	0	---	0.00	30.123 
10:00	60.4	60.4	60.4	95	59.0	0	0	---	0.00	30.128 
10:05	61.0	61.0	61.0	90	58.0	0	0	---	0.00	30.128 
10:10	61.8	61.8	61.8	89	58.5	0	0	---	0.00	30.128 
10:15	62.6	62.6	62.6	85	58.0	0	0	---	0.00	30.129 
10:20	63.4	63.4	63.4	83	58.1	0	0	---	0.00	30.129 
10:25	64.2	64.2	64.2	80	57.9	0	0	---	0.00	30.129 
10:30	64.8	64.8	64.8	76	57.0	0	1	45	0.00	30.126 
10:35	65.3	65.3	65.3	75	57.2	0	2	22	0.00	30.126 
10:40	65.8	65.8	65.8	75	57.6	0	2	248	0.00	30.126 
10:45	66.4	66.4	66.4	73	57.5	0	1	248	0.00	30.129 
10:50	66.9	66.9	66.9	73	58.0	0	1	248	0.00	30.129 
10:55	67.4	67.4	67.4	70	57.3	0	2	248	0.00	30.129 
11:00	67.8	67.8	67.8	71	58.0	0	1	248	0.00	30.129 
11:05	68.4	68.4	68.4	68	57.4	0	2	248	0.00	30.129 
11:10	68.8	68.8	68.8	68	57.8	0	2	248	0.00	30.129 
11:15	68.9	68.9	68.9	68	57.9	0	2	248	0.00	30.130 
11:20	69.1	69.1	69.1	69	58.5	0	2	248	0.00	30.130 
11:25	69.3	69.3	69.3	69	58.7	0	1	248	0.00	30.130 
11:30	69.3	69.3	69.3	65	57.0	0	2	248	0.00	30.133 
11:35	69.4	69.4	69.4	66	57.5	1	2	292	0.00	30.133 
11:40	69.9	69.9	69.9	68	58.8	0	1	292	0.00	30.133 
11:45	70.4	70.4	70.4	67	58.9	0	1	292	0.00	30.130 
11:50	70.8	70.8	70.8	65	58.4	0	2	292	0.00	30.130 
11:55	70.9	70.9	70.9	65	58.5	0	2	315	0.00	30.130 
12:00	71.1	71.1	71.1	66	59.2	0	1	315	0.00	30.129 
12:05	71.1	71.1	71.1	61	57.0	0	2	315	0.00	30.129 
12:10	71.3	71.3	71.3	67	59.8	0	1	338	0.00	30.129 
12:15	71.1	71.1	71.1	62	57.4	1	2	338	0.00	30.128 
12:20	70.9	70.9	70.9	63	57.7	1	5	112	0.00	30.128 
12:25	71.3	71.3	71.3	62	57.6	0	1	112	0.00	30.128 
12:30	71.3	71.3	71.3	65	58.9	0	2	112	0.00	30.126 
12:35	71.1	71.1	71.1	64	58.3	0	2	112	0.00	30.126 
12:40	71.3	71.3	71.3	68	60.2	0	2	112	0.00	30.126 
12:45	71.5	71.5	71.5	65	59.1	1	2	112	0.00	30.121 
12:50	71.6	71.6	71.6	65	59.2	0	2	112	0.00	30.121 
12:55	72.0	72.0	72.0	64	59.1	1	3	112	0.00	30.121 
13:00	72.0	72.0	72.0	63	58.7	0	1	112	0.00	30.119 
13:05	71.8	71.8	71.8	65	59.4	0	2	270	0.00	30.119 
13:10	72.1	72.1	72.1	65	59.7	1	3	90	0.00	30.119 
13:15	72.3	72.3	72.3	65	59.9	1	3	68	0.00	30.115 
13:20	72.3	72.3	72.3	62	58.5	0	3	112	0.00	30.115 
13:25	72.3	72.3	72.3	63	59.0	0	2	112	0.00	30.115 
13:30	72.3	72.3	72.3	61	58.1	1	4	90	0.00	30.114 
13:35	72.1	72.1	72.1	60	57.4	2	4	112	0.00	30.114 
13:40	71.8	71.8	71.8	61	57.6	0	2	112	0.00	30.114 
13:45	72.1	72.1	72.1	65	59.7	0	2	112	0.00	30.112 
13:50	72.3	72.3	72.3	61	58.1	1	4	112	0.00	30.112 
13:55	72.3	72.3	72.3	61	58.1	1	3	90	0.00	30.112 
14:00	72.5	72.5	72.5	57	56.4	1	4	90	0.00	30.106 
14:05	72.3	72.3	72.3	57	56.2	1	3	90	0.00	30.106 
14:10	72.3	72.3	72.3	61	58.1	0	2	180	0.00	30.106 
14:15	72.5	72.5	72.5	56	55.9	1	4	112	0.00	30.103 
14:20	72.5	72.5	72.5	57	56.4	1	4	112	0.00	30.103 
14:25	72.5	72.5	72.5	58	56.9	1	5	90	0.00	30.103 
14:30	72.5	72.5	72.5	59	57.3	2	5	90	0.00	30.100 
14:35	72.7	72.7	72.7	60	58.0	0	2	112	0.00	30.100 
14:40	72.7	72.7	72.7	56	56.1	0	1	158	0.00	30.100 
14:45	73.2	73.2	73.2	58	57.5	0	1	180	0.00	30.098 
14:50	73.2	73.2	73.2	57	57.0	0	3	135	0.00	30.098 
14:55	73.2	73.2	73.2	56	56.5	1	4	112	0.00	30.098 
15:00	72.8	72.8	72.8	58	57.1	1	4	112	0.00	30.097 
15:05	72.8	72.8	72.8	53	54.7	0	2	112	0.00	30.097 
15:10	73.0	73.0	73.0	57	56.9	1	2	112	0.00	30.097 
15:15	73.0	73.0	73.0	54	55.4	2	5	112	0.00	30.094 
15:20	72.8	72.8	72.8	57	56.7	1	3	112	0.00	30.094 
15:25	73.0	73.0	73.0	59	57.8	1	5	112	0.00	30.094 
15:30	73.0	73.0	73.0	53	54.8	1	3	90	0.00	30.088 
15:35	73.0	73.0	73.0	53	54.8	1	3	90	0.00	30.088 
15:40	73.3	73.3	73.3	57	57.1	0	1	90	0.00	30.088 
15:45	73.5	73.5	73.5	56	56.8	1	3	90	0.00	30.083 
15:50	73.5	73.5	73.5	54	55.8	1	3	90	0.00	30.083 
15:55	73.7	73.7	73.7	51	54.4	0	1	90	0.00	30.083 
16:00	74.0	74.0	74.0	53	55.8	0	2	90	0.00	30.083 
16:05	74.4	74.4	74.4	50	54.5	1	5	90	0.00	30.083 
16:10	74.4	74.4	74.4	51	55.1	1	3	90	0.00	30.083 
16:15	74.6	74.6	74.6	53	56.3	0	2	90	0.00	30.077 
16:20	74.7	74.7	74.7	55	57.4	1	3	90	0.00	30.077 
16:25	74.7	74.7	74.7	52	55.9	1	4	90	0.00	30.077 
16:30	74.6	74.6	74.6	53	56.3	1	3	90	0.00	30.068 
16:35	74.2	74.2	74.2	55	57.0	1	2	112	0.00	30.068 
16:40	74.0	74.0	74.0	54	56.3	0	2	112	0.00	30.068 
16:45	73.9	73.9	73.9	52	55.1	0	2	112	0.00	30.069 
16:50	73.7	73.7	73.7	56	57.0	0	2	112	0.00	30.069 
16:55	73.3	73.3	73.3	54	55.6	1	4	112	0.00	30.069 
17:00	73.0	73.0	73.0	54	55.4	1	3	90	0.00	30.071 
17:05	72.7	72.7	72.7	53	54.6	0	2	90	0.00	30.071 
17:10	72.7	72.7	72.7	54	55.1	0	2	90	0.00	30.071 
17:15	72.7	72.7	72.7	54	55.1	1	3	90	0.00	30.074 
17:20	72.5	72.5	72.5	55	55.4	0	2	90	0.00	30.074 
17:25	72.5	72.5	72.5	55	55.4	0	0	---	0.00	30.074 
17:30	72.5	72.5	72.5	56	55.9	0	1	90	0.00	30.072 
17:35	72.5	72.5	72.5	57	56.4	0	1	90	0.00	30.072 
17:40	72.5	72.5	72.5	56	55.9	0	1	90	0.00	30.072 
17:45	72.3	72.3	72.3	59	57.2	0	1	90	0.00	30.071 
17:50	72.3	72.3	72.3	57	56.2	0	1	90	0.00	30.071 
17:55	72.5	72.5	72.5	59	57.3	0	0	---	0.00	30.071 
18:00	72.5	72.5	72.5	55	55.4	0	1	90	0.00	30.070 
18:05	72.5	72.5	72.5	58	56.9	0	1	90	0.00	30.070 
18:10	72.3	72.3	72.3	56	55.7	0	2	90	0.00	30.070 
18:15	72.1	72.1	72.1	58	56.5	0	1	90	0.00	30.070 
18:20	71.8	71.8	71.8	58	56.2	0	0	---	0.00	30.070 
18:25	71.8	71.8	71.8	57	55.7	0	1	90	0.00	30.070 
18:30	71.6	71.6	71.6	57	55.5	0	1	90	0.00	30.070 
18:35	71.6	71.6	71.6	60	57.0	0	1	90	0.00	30.070 
18:40	71.6	71.6	71.6	59	56.5	0	1	90	0.00	30.070 
18:45	71.6	71.6	71.6	59	56.5	0	1	90	0.00	30.072 
18:50	71.5	71.5	71.5	59	56.4	0	0	---	0.00	30.072 
18:55	71.5	71.5	71.5	60	56.9	0	0	---	0.00	30.072 
19:00	71.5	71.5	71.5	60	56.9	0	0	---	0.00	30.070 
19:05	71.5	71.5	71.5	59	56.4	0	1	90	0.00	30.070 
19:10	71.5	71.5	71.5	56	55.0	0	1	90	0.00	30.070 
19:15	71.6	71.6	71.6	59	56.5	0	1	90	0.00	30.070 
19:20	71.5	71.5	71.5	60	56.9	0	1	90	0.00	30.070 
19:25	71.3	71.3	71.3	59	56.2	0	1	90	0.00	30.070 
19:30	71.1	71.1	71.1	60	56.5	0	0	---	0.00	30.069 
19:35	70.9	70.9	70.9	61	56.8	0	0	---	0.00	30.069 
19:40	70.8	70.8	70.8	60	56.2	0	0	---	0.00	30.069 
19:45	70.4	70.4	70.4	61	56.3	0	0	---	0.00	30.069 
19:50	70.1	70.1	70.1	61	56.0	0	0	---	0.00	30.069 
19:55	69.8	69.8	69.8	62	56.2	0	0	---	0.00	30.069 
20:00	69.4	69.4	69.4	63	56.2	0	0	---	0.00	30.066 
20:05	69.1	69.1	69.1	64	56.4	0	0	---	0.00	30.066 
20:10	68.6	68.6	68.6	65	56.4	0	0	---	0.00	30.066 
20:15	68.1	68.1	68.1	66	56.3	0	0	---	0.00	30.067 
20:20	67.8	67.8	67.8	67	56.4	0	0	---	0.00	30.067 
20:25	67.3	67.3	67.3	68	56.4	0	0	---	0.00	30.067 
20:30	66.9	66.9	66.9	70	56.8	0	0	---	0.00	30.069 
20:35	66.4	66.4	66.4	72	57.1	0	0	---	0.00	30.069 
20:40	66.0	66.0	66.0	72	56.7	0	0	---	0.00	30.069 
20:45	65.5	65.5	65.5	73	56.6	0	0	---	0.00	30.070 
20:50	65.0	65.0	65.0	75	56.9	0	0	---	0.00	30.070 
20:55	64.5	64.5	64.5	76	56.8	0	0	---	0.00	30.070 
21:00	64.0	64.0	64.0	77	56.6	0	0	---	0.00	30.072 
21:05	63.7	63.7	63.7	79	57.1	0	0	---	0.00	30.072 
21:10	63.4	63.4	63.4	79	56.8	0	0	---	0.00	30.072 
21:15	63.1	63.1	63.1	79	56.5	0	0	---	0.00	30.073 
21:20	62.7	62.7	62.7	80	56.4	0	0	---	0.00	30.073 
21:25	62.4	62.4	62.4	81	56.5	0	0	---	0.00	30.073 
21:30	62.1	62.1	62.1	82	56.5	0	0	---	0.00	30.076 
21:35	61.8	61.8	61.8	83	56.6	0	0	---	0.00	30.076 
21:40	61.5	61.5	61.5	84	56.6	0	0	---	0.00	30.076 
21:45	61.2	61.2	61.2	85	56.6	0	0	---	0.00	30.085 
21:50	60.9	60.9	60.9	86	56.7	0	0	---	0.00	30.085 
21:55	60.7	60.7	60.7	86	56.5	0	0	---	0.00	30.085 
22:00	60.4	60.4	60.4	87	56.5	0	0	---	0.00	30.086 
22:05	60.2	60.2	60.2	87	56.3	0	0	---	0.00	30.086 
22:10	60.1	60.1	60.1	88	56.5	0	0	---	0.00	30.086 
22:15	59.8	59.8	59.8	88	56.2	0	0	---	0.00	30.079 
22:20	59.6	59.6	59.6	88	56.0	0	0	---	0.00	30.079 
22:25	59.5	59.5	59.5	89	56.3	0	0	---	0.00	30.079 
22:30	59.3	59.3	59.3	89	56.1	0	0	---	0.00	30.083 
22:35	59.0	59.0	59.0	89	55.8	0	0	---	0.00	30.083 
22:40	58.9	58.9	58.9	89	55.7	0	0	---	0.00	30.083 
22:45	58.7	58.7	58.7	90	55.8	0	0	---	0.00	30.083 
22:50	58.4	58.4	58.4	90	55.5	0	0	---	0.00	30.083 
22:55	58.3	58.3	58.3	90	55.4	0	0	---	0.00	30.083 
23:00	58.1	58.1	58.1	90	55.2	0	0	---	0.00	30.084 
23:05	58.0	58.0	58.0	90	55.1	0	0	---	0.00	30.084 
23:10	57.8	57.8	57.8	91	55.2	0	0	---	0.00	30.084 
23:15	57.6	57.6	57.6	91	55.0	0	0	---	0.00	30.083 
23:20	57.5	57.5	57.5	92	55.2	0	0	---	0.00	30.083 
23:25	57.3	57.3	57.3	92	55.0	0	0	---	0.00	30.083 
23:30	57.2	57.2	57.2	92	54.9	0	0	---	0.00	30.081 
23:35	57.2	57.2	57.2	92	54.9	0	0	---	0.00	30.081 
23:40	57.0	57.0	57.0	92	54.7	0	0	---	0.00	30.081 
23:45	56.9	56.9	56.9	92	54.6	0	0	---	0.00	30.081 
23:50	56.7	56.7	56.7	92	54.4	0	0	---	0.00	30.081 
23:55	56.9	56.9	56.9	93	54.9	0	0	---	0.00	30.081 

CoCoRaHS
IN-AL-39
A2 Web Hosting
Creative Commons License
GoDaddy
Look for:

loaded 2017-10-17 00:18:15 • last modified 2010-11-18 10:43:29
Privacy PolicyDisclaimer
• wx.awcolley.com is powered by PmWiki v.2002016 •
• all content (unless otherwise noted) © 2017 A W Colley